Location: DARK SKY Beskydy - Park tmavé oblohy, www.darkskybeskydy.cz
(49.4926°N, 18.5016°E)
Time: 15:44:57
(UTC+02:00)

ACS3 Solar Sail - Visible Passes

Search period start: 13 July 2025 00:00
Search period end: 23 July 2025 00:00
Orbit: 912 x 1023 km, 97.5° (Epoch: 12 July)

Date Brightness Start Highest point End Pass type
(mag) Time Alt. Az. Time Alt. Az. Time Alt. Az.
16 Jul 4.4 04:10:27 10° NE 04:13:42 15° E 04:16:59 10° ESE visible
20 Jul 4.6 03:57:49 10° ENE 04:00:13 12° E 04:02:37 10° ESE visible
21 Jul 4.3 04:18:53 10° NE 04:23:04 19° E 04:27:17 10° SE visible
